Home   Weather   Melbourne   Past weeks
Flag for Australia

Past Weather in Melbourne, Victoria, Australia — Yesterday and Last 2 Weeks

Now
70 °F

Sunny.


Feels Like: 70 °F
Forecast: 77 / 47 °F
Wind: 9 mph from South

Location: Melbourne Airport

Current Time: Oct 22, 2019 at 5:42:11 pm

Latest Report: Oct 22, 2019 at 5:00 pm


Visibility: 10 mi

Pressure: 30.18 "Hg

Humidity: 31%

Dew Point: 37 °F

Location of MelbourneLocation

Past Weather in Melbourne — Graph

°F

Melbourne Temperature Yesterday

Maximum temperature yesterday: 63 °F (at 4:00 pm)
Minimum temperature yesterday: 48 °F (at 10:30 pm)
Average temperature yesterday: 54 °F

High & Low Weather Summary for the Past Weeks

 TemperatureHumidityPressure
High77 °F (Oct 14, 2:02 pm)100% (Oct 10, 1:00 am)30.39 "Hg (Oct 10, 1:00 am)
Low41 °F (Oct 18, 6:00 am)25% (Oct 18, 5:00 pm)29.71 "Hg (Oct 17, 2:30 am)
Average54 °F71%30.07 "Hg
* Reported Oct 7 4:00 pm — Oct 22 4:30 pm, Melbourne. Weather by CustomWeather, © 2019

Note: Actual official high and low records may vary slightly from our data, if they occured in-between our weather recording intervals... More about our weather records

Advertising

Melbourne Weather History for the Previous 24 Hours

Scroll right to see more
 ConditionsComfort  
Time TempWeatherWind HumidityBarometerVisibility
4:30 pm
Tue, Oct 22
70 °FSunny.8 mph27%30.18 "Hg10 mi
4:00 pm70 °FSunny.9 mph33%30.21 "Hg10 mi
3:30 pm72 °FSunny.9 mph33%30.21 "Hg10 mi
3:00 pm72 °FPassing clouds.9 mph41%30.21 "HgN/A
2:30 pm70 °FPassing clouds.7 mph40%30.24 "HgN/A
2:00 pm70 °FPassing clouds.7 mph40%30.24 "HgN/A
1:30 pm68 °FPassing clouds.6 mph43%30.24 "HgN/A
1:00 pm66 °FPassing clouds.6 mph46%30.27 "HgN/A
12:30 pm64 °FPassing clouds.6 mph52%30.27 "HgN/A
12:00 pm63 °FPassing clouds.1 mph56%30.27 "HgN/A
11:00 am59 °FPassing clouds.7 mph63%30.30 "HgN/A
10:30 am59 °FPassing clouds.6 mph63%30.30 "HgN/A
10:00 am57 °FScattered clouds.5 mph67%30.30 "HgN/A
9:30 am55 °FPartly sunny.8 mph72%30.33 "HgN/A
9:00 am55 °FPartly sunny.1 mph72%30.33 "HgN/A
8:30 am54 °FPartly sunny.6 mph77%30.30 "HgN/A
8:00 am54 °FPartly sunny.5 mph77%30.30 "HgN/A
7:30 am54 °FOvercast.1 mph77%30.30 "HgN/A
7:00 am52 °FPartly sunny.5 mph82%30.30 "HgN/A
6:30 am52 °FPartly sunny.5 mph82%30.30 "HgN/A
6:00 am52 °FPassing clouds.7 mph82%30.27 "HgN/A
5:30 am52 °FPassing clouds.5 mph88%30.27 "HgN/A
5:00 am52 °FPassing clouds.5 mph88%30.27 "HgN/A
4:30 am52 °FPassing clouds.5 mph88%30.27 "HgN/A
4:00 am52 °FPassing clouds.7 mph88%30.27 "HgN/A
3:30 am52 °FPassing clouds.6 mph88%30.27 "HgN/A
3:00 am52 °FPassing clouds.5 mph88%30.27 "HgN/A
2:30 am52 °FPassing clouds.6 mph88%30.30 "HgN/A
2:00 am52 °FPassing clouds.7 mph88%30.30 "HgN/A
1:30 am52 °FPassing clouds.5 mph88%30.30 "HgN/A
1:00 am52 °FPassing clouds.6 mph94%30.33 "HgN/A
12:30 am52 °FPassing clouds.6 mph88%30.33 "HgN/A
12:00 am52 °FPassing clouds.5 mph88%30.33 "HgN/A
11:30 pm
Mon, Oct 21
52 °FPassing clouds.5 mph88%30.33 "HgN/A
11:00 pm50 °FPassing clouds.3 mph94%30.33 "HgN/A
10:30 pm48 °FPassing clouds.3 mph94%30.33 "HgN/A
10:00 pm50 °FPassing clouds.3 mph94%30.36 "HgN/A
9:30 pm50 °FPassing clouds.5 mph88%30.33 "HgN/A
9:00 pm52 °FPassing clouds.6 mph82%30.33 "HgN/A
8:30 pm54 °FPassing clouds.10 mph77%30.33 "HgN/A
8:00 pm54 °FPassing clouds.7 mph77%30.33 "HgN/A
7:30 pm57 °FPassing clouds.9 mph63%30.30 "HgN/A
7:00 pm59 °FPassing clouds.9 mph59%30.30 "HgN/A
6:30 pm61 °FSunny.10 mph59%30.30 "Hg10 mi
6:00 pm61 °FPassing clouds.9 mph55%30.30 "HgN/A
5:30 pm61 °FPassing clouds.9 mph55%30.30 "HgN/A
5:00 pm61 °FPassing clouds.9 mph55%30.30 "HgN/A
Weather by CustomWeather, © 2019

See weather overview